Time,TemperatureF,DewpointF,PressureIn,WindDirection,WindDirectionDegrees,WindSpeedMPH,WindSpeedGustMPH,Humidity,HourlyPrecipIn,Conditions,Clouds,dailyrainin,SoftwareType,DateUTC
2013-08-26 00:13:00,73.0,-99.9,-100.00,SW,233,1.0,2.0,-999,0.00,,,0.00,,2013-08-26 05:13:00,
2013-08-26 00:23:00,73.0,-99.9,-100.00,SW,233,1.0,2.0,-999,0.00,,,0.00,,2013-08-26 05:23:00,
2013-08-26 00:44:00,73.0,-99.9,-100.00,SW,234,2.0,4.0,-999,0.00,,,0.00,,2013-08-26 05:44:00,
2013-08-26 00:53:00,73.0,-99.9,-100.00,SW,234,2.0,4.0,-999,0.00,,,0.00,,2013-08-26 05:53:00,
2013-08-26 01:12:00,72.0,-99.9,-100.00,SW,234,1.0,3.0,-999,0.00,,,0.00,,2013-08-26 06:12:00,
2013-08-26 01:22:00,72.0,-99.9,-100.00,SW,234,1.0,3.0,-999,0.00,,,0.00,,2013-08-26 06:22:00,
2013-08-26 01:42:00,72.0,-99.9,-100.00,SW,227,1.0,1.0,-999,0.00,,,0.00,,2013-08-26 06:42:00,
2013-08-26 01:52:00,72.0,-99.9,-100.00,SW,227,1.0,1.0,-999,0.00,,,0.00,,2013-08-26 06:52:00,
2013-08-26 02:12:00,70.0,-99.9,-100.00,SSW,200,0.0,0.0,-999,0.00,,,0.00,,2013-08-26 07:12:00,
2013-08-26 02:22:00,70.0,-99.9,-100.00,SSW,200,0.0,0.0,-999,0.00,,,0.00,,2013-08-26 07:22:00,
2013-08-26 02:42:00,70.0,-99.9,-100.00,SW,232,0.0,1.0,-999,0.00,,,0.00,,2013-08-26 07:42:00,
2013-08-26 02:53:00,70.0,-99.9,-100.00,SW,232,0.0,1.0,-999,0.00,,,0.00,,2013-08-26 07:53:00,
2013-08-26 03:12:00,70.0,-99.9,-100.00,SW,223,0.0,0.0,-999,0.00,,,0.00,,2013-08-26 08:12:00,
2013-08-26 03:22:00,70.0,-99.9,-100.00,SW,223,0.0,0.0,-999,0.00,,,0.00,,2013-08-26 08:22:00,
2013-08-26 03:42:00,70.0,-99.9,-100.00,SW,218,0.0,0.0,-999,0.00,,,0.00,,2013-08-26 08:42:00,
2013-08-26 03:52:00,70.0,-99.9,-100.00,SW,218,0.0,0.0,-999,0.00,,,0.00,,2013-08-26 08:52:00,
2013-08-26 04:11:00,66.0,-99.9,-100.00,SSW,199,0.0,0.0,-999,0.00,,,0.00,,2013-08-26 09:11:00,
2013-08-26 04:22:00,66.0,-99.9,-100.00,SSW,199,0.0,0.0,-999,0.00,,,0.00,,2013-08-26 09:22:00,
2013-08-26 04:44:00,67.0,-99.9,-100.00,SSW,196,0.0,0.0,-999,0.00,,,0.00,,2013-08-26 09:44:00,
2013-08-26 04:54:00,67.0,-99.9,-100.00,SSW,196,0.0,0.0,-999,0.00,,,0.00,,2013-08-26 09:54:00,
2013-08-26 05:13:00,64.0,-99.9,-100.00,South,191,0.0,0.0,-999,0.00,,,0.00,,2013-08-26 10:13:00,
2013-08-26 05:23:00,64.0,-99.9,-100.00,South,191,0.0,0.0,-999,0.00,,,0.00,,2013-08-26 10:23:00,
2013-08-26 05:42:00,65.0,-99.9,-100.00,SSW,208,0.0,0.0,-999,0.00,,,0.00,,2013-08-26 10:42:00,
2013-08-26 05:52:00,65.0,-99.9,-100.00,SSW,208,0.0,0.0,-999,0.00,,,0.00,,2013-08-26 10:52:00,
2013-08-26 06:12:00,66.0,-99.9,-100.00,WSW,254,0.0,1.0,-999,0.00,,,0.00,,2013-08-26 11:12:00,
2013-08-26 06:22:00,66.0,-99.9,-100.00,WSW,254,0.0,1.0,-999,0.00,,,0.00,,2013-08-26 11:22:00,
2013-08-26 06:42:00,66.0,-99.9,-100.00,South,187,0.0,0.0,-999,0.00,,,0.00,,2013-08-26 11:42:00,
2013-08-26 06:52:00,66.0,-99.9,-100.00,South,187,0.0,0.0,-999,0.00,,,0.00,,2013-08-26 11:52:00,
2013-08-26 07:12:00,65.0,-99.9,-100.00,SSE,161,0.0,0.0,-999,0.00,,,0.00,,2013-08-26 12:12:00,
2013-08-26 07:22:00,65.0,-99.9,-100.00,SSE,161,0.0,0.0,-999,0.00,,,0.00,,2013-08-26 12:22:00,
2013-08-26 07:42:00,65.0,-99.9,-100.00,SSW,204,0.0,0.0,-999,0.00,,,0.00,,2013-08-26 12:42:00,
2013-08-26 07:52:00,65.0,-99.9,-100.00,SSW,204,0.0,0.0,-999,0.00,,,0.00,,2013-08-26 12:52:00,
2013-08-26 08:12:00,68.0,-99.9,-100.00,South,174,0.0,2.0,-999,0.00,,,0.00,,2013-08-26 13:12:00,
2013-08-26 08:22:00,68.0,-99.9,-100.00,South,174,0.0,2.0,-999,0.00,,,0.00,,2013-08-26 13:22:00,
2013-08-26 08:42:00,72.0,-99.9,-100.00,NW,310,0.0,0.0,-999,0.00,,,0.00,,2013-08-26 13:42:00,
2013-08-26 08:52:00,72.0,-99.9,-100.00,NW,310,0.0,0.0,-999,0.00,,,0.00,,2013-08-26 13:52:00,
2013-08-26 09:11:00,74.0,-99.9,-100.00,South,186,0.0,0.0,-999,0.00,,,0.00,,2013-08-26 14:11:00,
2013-08-26 09:22:00,74.0,-99.9,-100.00,South,186,0.0,0.0,-999,0.00,,,0.00,,2013-08-26 14:22:00,
2013-08-26 09:42:00,76.0,-99.9,-100.00,SSW,193,0.0,0.0,-999,0.00,,,0.00,,2013-08-26 14:42:00,
2013-08-26 09:52:00,76.0,-99.9,-100.00,SSW,193,0.0,0.0,-999,0.00,,,0.00,,2013-08-26 14:52:00,
2013-08-26 10:12:00,78.0,-99.9,-100.00,SSW,193,0.0,0.0,-999,0.00,,,0.00,,2013-08-26 15:12:00,
2013-08-26 10:22:00,78.0,-99.9,-100.00,SSW,193,0.0,0.0,-999,0.00,,,0.00,,2013-08-26 15:22:00,
2013-08-26 10:47:00,80.0,-99.9,-100.00,South,185,0.0,0.0,-999,0.00,,,0.00,,2013-08-26 15:47:00,
2013-08-26 10:59:00,80.0,-99.9,-100.00,South,185,0.0,0.0,-999,0.00,,,0.00,,2013-08-26 15:59:00,
2013-08-26 11:17:00,84.0,-99.9,-100.00,South,170,0.0,2.0,-999,0.00,,,0.00,,2013-08-26 16:17:00,
2013-08-26 11:29:00,84.0,-99.9,-100.00,South,170,0.0,2.0,-999,0.00,,,0.00,,2013-08-26 16:29:00,
2013-08-26 11:48:00,89.0,-99.9,-100.00,SW,227,0.0,1.0,-999,0.00,,,0.00,,2013-08-26 16:48:00,
2013-08-26 11:59:00,89.0,-99.9,-100.00,SW,227,0.0,1.0,-999,0.00,,,0.00,,2013-08-26 16:59:00,
2013-08-26 12:12:00,91.0,-99.9,-100.00,WSW,242,1.0,3.0,-999,0.00,,,0.00,,2013-08-26 17:12:00,
2013-08-26 12:24:00,91.0,-99.9,-100.00,WSW,242,1.0,3.0,-999,0.00,,,0.00,,2013-08-26 17:24:00,
2013-08-26 12:43:00,92.0,-99.9,-100.00,SW,232,0.0,1.0,-999,0.00,,,0.00,,2013-08-26 17:43:00,
2013-08-26 12:53:00,92.0,-99.9,-100.00,SW,232,0.0,1.0,-999,0.00,,,0.00,,2013-08-26 17:53:00,
2013-08-26 13:12:00,94.0,-99.9,-100.00,SW,226,1.0,2.0,-999,0.00,,,0.00,,2013-08-26 18:12:00,
2013-08-26 13:22:00,94.0,-99.9,-100.00,SW,226,1.0,2.0,-999,0.00,,,0.00,,2013-08-26 18:22:00,
2013-08-26 13:42:00,92.0,-99.9,-100.00,WSW,244,2.0,5.0,-999,0.00,,,0.00,,2013-08-26 18:42:00,
2013-08-26 13:52:00,92.0,-99.9,-100.00,WSW,244,2.0,5.0,-999,0.00,,,0.00,,2013-08-26 18:52:00,
2013-08-26 14:11:00,94.0,-99.9,-100.00,SW,230,1.0,6.0,-999,0.00,,,0.00,,2013-08-26 19:11:00,
2013-08-26 14:22:00,94.0,-99.9,-100.00,SW,230,1.0,6.0,-999,0.00,,,0.00,,2013-08-26 19:22:00,
2013-08-26 14:42:00,95.0,-99.9,-100.00,SW,222,1.0,3.0,-999,0.00,,,0.00,,2013-08-26 19:42:00,
2013-08-26 14:52:00,95.0,-99.9,-100.00,SW,222,1.0,3.0,-999,0.00,,,0.00,,2013-08-26 19:52:00,
2013-08-26 15:12:00,95.0,-99.9,-100.00,SSW,211,1.0,2.0,-999,0.00,,,0.00,,2013-08-26 20:12:00,
2013-08-26 15:22:00,95.0,-99.9,-100.00,SSW,211,1.0,2.0,-999,0.00,,,0.00,,2013-08-26 20:22:00,
2013-08-26 15:43:00,96.0,-99.9,-100.00,SW,214,1.0,2.0,-999,0.00,,,0.00,,2013-08-26 20:43:00,
2013-08-26 15:52:00,96.0,-99.9,-100.00,SW,214,1.0,2.0,-999,0.00,,,0.00,,2013-08-26 20:52:00,
2013-08-26 16:12:00,94.0,-99.9,-100.00,SSE,162,0.0,2.0,-999,0.00,,,0.00,,2013-08-26 21:12:00,
2013-08-26 16:22:00,94.0,-99.9,-100.00,SSE,162,0.0,2.0,-999,0.00,,,0.00,,2013-08-26 21:22:00,
2013-08-26 16:45:00,93.0,-99.9,-100.00,SSW,196,1.0,2.0,-999,0.00,,,0.00,,2013-08-26 21:45:00,
2013-08-26 16:55:00,93.0,-99.9,-100.00,SSW,196,1.0,2.0,-999,0.00,,,0.00,,2013-08-26 21:55:00,
2013-08-26 17:16:00,93.0,-99.9,-100.00,South,173,1.0,2.0,-999,0.00,,,0.00,,2013-08-26 22:16:00,
2013-08-26 17:26:00,93.0,-99.9,-100.00,South,173,1.0,2.0,-999,0.00,,,0.00,,2013-08-26 22:26:00,
2013-08-26 17:43:00,94.0,-99.9,-100.00,SSE,164,1.0,2.0,-999,0.00,,,0.00,,2013-08-26 22:43:00,
2013-08-26 17:53:00,94.0,-99.9,-100.00,SSE,164,1.0,2.0,-999,0.00,,,0.00,,2013-08-26 22:53:00,
2013-08-26 18:13:00,94.0,-99.9,-100.00,SSW,193,0.0,2.0,-999,0.00,,,0.00,,2013-08-26 23:13:00,
2013-08-26 18:22:00,94.0,-99.9,-100.00,SSW,193,0.0,2.0,-999,0.00,,,0.00,,2013-08-26 23:22:00,
2013-08-26 18:42:00,94.0,-99.9,-100.00,South,189,0.0,1.0,-999,0.00,,,0.00,,2013-08-26 23:42:00,
2013-08-26 18:52:00,94.0,-99.9,-100.00,South,189,0.0,1.0,-999,0.00,,,0.00,,2013-08-26 23:52:00,
2013-08-26 19:11:00,92.0,-99.9,-100.00,South,176,0.0,1.0,-999,0.00,,,0.00,,2013-08-27 00:11:00,
2013-08-26 19:22:00,92.0,-99.9,-100.00,South,176,0.0,1.0,-999,0.00,,,0.00,,2013-08-27 00:22:00,
2013-08-26 19:42:00,90.0,-99.9,-100.00,South,177,0.0,1.0,-999,0.00,,,0.00,,2013-08-27 00:42:00,
2013-08-26 19:52:00,90.0,-99.9,-100.00,South,177,0.0,1.0,-999,0.00,,,0.00,,2013-08-27 00:52:00,
2013-08-26 20:12:00,89.0,-99.9,-100.00,South,188,0.0,0.0,-999,0.00,,,0.00,,2013-08-27 01:12:00,
2013-08-26 20:22:00,89.0,-99.9,-100.00,South,188,0.0,0.0,-999,0.00,,,0.00,,2013-08-27 01:22:00,
2013-08-26 20:42:00,87.0,-99.9,-100.00,SSW,195,0.0,0.0,-999,0.00,,,0.00,,2013-08-27 01:42:00,
2013-08-26 20:52:00,87.0,-99.9,-100.00,SSW,195,0.0,0.0,-999,0.00,,,0.00,,2013-08-27 01:52:00,
2013-08-26 21:12:00,86.0,-99.9,-100.00,SSE,162,0.0,0.0,-999,0.00,,,0.00,,2013-08-27 02:12:00,
2013-08-26 21:22:00,86.0,-99.9,-100.00,SSE,162,0.0,0.0,-999,0.00,,,0.00,,2013-08-27 02:22:00,
2013-08-26 21:43:00,85.0,-99.9,-100.00,West,259,1.0,2.0,-999,0.00,,,0.00,,2013-08-27 02:43:00,
2013-08-26 21:52:00,85.0,-99.9,-100.00,West,259,1.0,2.0,-999,0.00,,,0.00,,2013-08-27 02:52:00,
2013-08-26 22:12:00,84.0,-99.9,-100.00,SW,236,1.0,2.0,-999,0.00,,,0.00,,2013-08-27 03:12:00,
2013-08-26 22:23:00,84.0,-99.9,-100.00,SW,236,1.0,2.0,-999,0.00,,,0.00,,2013-08-27 03:23:00,
2013-08-26 22:45:00,83.0,-99.9,-100.00,SW,226,0.0,0.0,-999,0.00,,,0.00,,2013-08-27 03:45:00,
2013-08-26 22:58:00,83.0,-99.9,-100.00,SW,226,0.0,0.0,-999,0.00,,,0.00,,2013-08-27 03:58:00,
2013-08-26 23:18:00,82.0,-99.9,-100.00,SW,228,0.0,0.0,-999,0.00,,,0.00,,2013-08-27 04:18:00,
2013-08-26 23:29:00,82.0,-99.9,-100.00,SW,228,0.0,0.0,-999,0.00,,,0.00,,2013-08-27 04:29:00,
2013-08-26 23:47:00,75.0,-99.9,-100.00,SSW,212,0.0,0.0,-999,0.00,,,0.00,,2013-08-27 04:47:00,
2013-08-26 23:54:00,75.0,-99.9,-100.00,SSW,212,0.0,0.0,-999,0.00,,,0.00,,2013-08-27 04:54:00,